Regional Weather Roundup
Issued by NWS Goodland, KS

Home | Current Version | Previous Version | Text Only | Print | Product List | Glossary Off
Versions: 1 2 3 4 5 6 7 8 9 10 11 12 13 14 15 16 17 18 19 20 21 22 23 24 25 26 27 28 29 30 31 32 33 34 35 36 37 38 39 40 41 42 43 44 45 46 47 48 49 50

000
ASUS43 KGLD 211108
RWRGLD

GOODLAND FORECAST AREA HOURLY WEATHER ROUNDUP
NATIONAL WEATHER SERVICE GOODLAND KS
500 AM MDT THU AUG 21 2014

...OFFICIAL OBSERVATIONS...

CITY           SKY/WX    TMP DP  RH WIND       PRES   REMARKS
GOODLAND KS    CLEAR     64  58  80 NW8       29.91S
HILL CITY KS   LGT RAIN  78  66  66 SW10G16   29.81R
IMPERIAL NEB   PTCLDY    67  61  81 W3        29.88S
MCCOOK NEB     CLEAR     68  63  84 NW12      29.84R
AKRON CO       MOCLDY    63  56  78 NW13      29.99R
BURLINGTON CO  CLEAR     63  56  78 N8        29.94S
LIMON CO       CLEAR     58  55  90 W7        30.05R
$$

...UNOFFICIAL OBSERVATIONS...

CITY           SKY/WX    TMP DP  RH WIND       PRES   REMARKS
COLBY KS       CLEAR     66  64  94 NW9       29.88R
LENORA KS        N/A     77  32  19 CALM        N/A
NORTON KS      CLEAR     73  61  64 S5        29.79S
SHARON SPRINGS   N/A     66  58  75 N5          N/A
WAKEENEY KS      N/A     78  58  49 MISG        N/A
KIT CARSON CO    N/A     66  55  68 MISG        N/A
YUMA CO          N/A     64  59  84 CALM        N/A
$$



USA.gov is the U.S. government's official web portal to all federal, state and local government web resources and services.